Location: Mohawk View
(42.7837°N, 73.7885°W)
Time: 08:40:01
(UTC+00:00)

Cosmos 1184 Rocket - Pass Details

Date: 17 June 2021
Orbit: 399 x 414 km, 81.2° (Epoch: 27 July)

Event Time Altitude Azimuth Distance (km) Brightness Sun altitude
Exits shadow 04:48:12 31° 313° (NW) 757 4.4 -23.8°
Drops below altitude 10° 04:50:33 10° 352° (N) 1,502 6.6 -23.8°
Sets 04:52:43 0° 2° (N) 2,369 8.0 -23.8°
